![]() |
EMODnet Physics ERDDAP
Easier access to scientific data |
log in|
Brought to you by EMODnet Physics |
| Dataset Title: | NDBC - Collection of dew point temperature (DEWT) TimeSeries - IN SITU MultiPointTimeSeriesObservation
|
| Institution: | NDBC (Dataset ID: TS_DEWT_NDBC) |
| Information: | Summary
| License
| FGDC
| ISO 19115
| Metadata
| Background
| Subset
| Data Access Form
| Make a graph
|
| Name | Last modified | Size | Description | |
|---|---|---|---|---|
| Parent Directory | - | - | ||
| 44039_TS_DEWT_012004.nc | 26-Dec-2024 14:38 | 429597 | ||
| 44039_TS_DEWT_012005.nc | 26-Dec-2024 14:40 | 429525 | ||
| 44039_TS_DEWT_012006.nc | 26-Dec-2024 14:42 | 429619 | ||
| 44039_TS_DEWT_012007.nc | 26-Dec-2024 14:45 | 429612 | ||
| 44039_TS_DEWT_012008.nc | 26-Dec-2024 14:49 | 429614 | ||
| 44039_TS_DEWT_012010.nc | 26-Dec-2024 14:54 | 443446 | ||
| 44039_TS_DEWT_012011.nc | 26-Dec-2024 14:57 | 442170 | ||
| 44039_TS_DEWT_012012.nc | 26-Dec-2024 15:00 | 429633 | ||
| 44039_TS_DEWT_012013.nc | 26-Dec-2024 15:02 | 429615 | ||
| 44039_TS_DEWT_012014.nc | 26-Dec-2024 15:05 | 429608 | ||
| 44039_TS_DEWT_012015.nc | 26-Dec-2024 15:08 | 450633 | ||
| 44039_TS_DEWT_012016.nc | 26-Dec-2024 15:09 | 450845 | ||
| 44039_TS_DEWT_012017.nc | 26-Dec-2024 15:12 | 450782 | ||
| 44039_TS_DEWT_012023.nc | 26-Dec-2024 15:21 | 451150 | ||
| 44039_TS_DEWT_012024.nc | 20-Jan-2025 08:58 | 450059 | ||
| 44039_TS_DEWT_022004.nc | 26-Dec-2024 14:38 | 451463 | ||
| 44039_TS_DEWT_022005.nc | 26-Dec-2024 14:40 | 450569 | ||
| 44039_TS_DEWT_022006.nc | 26-Dec-2024 14:43 | 450648 | ||
| 44039_TS_DEWT_022007.nc | 26-Dec-2024 14:45 | 449750 | ||
| 44039_TS_DEWT_022008.nc | 26-Dec-2024 14:49 | 450033 | ||
| 44039_TS_DEWT_022010.nc | 26-Dec-2024 14:55 | 429835 | ||
| 44039_TS_DEWT_022011.nc | 26-Dec-2024 14:57 | 429832 | ||
| 44039_TS_DEWT_022012.nc | 26-Dec-2024 15:00 | 429830 | ||
| 44039_TS_DEWT_022013.nc | 26-Dec-2024 15:02 | 450085 | ||
| 44039_TS_DEWT_022014.nc | 26-Dec-2024 15:05 | 449919 | ||
| 44039_TS_DEWT_022015.nc | 26-Dec-2024 15:08 | 449609 | ||
| 44039_TS_DEWT_022016.nc | 26-Dec-2024 15:09 | 429811 | ||
| 44039_TS_DEWT_022023.nc | 26-Dec-2024 15:21 | 429811 | ||
| 44039_TS_DEWT_022024.nc | 20-Jan-2025 08:58 | 429832 | ||
| 44039_TS_DEWT_032004.nc | 26-Dec-2024 14:38 | 427464 | ||
| 44039_TS_DEWT_032005.nc | 26-Dec-2024 14:40 | 429814 | ||
| 44039_TS_DEWT_032006.nc | 26-Dec-2024 14:43 | 429790 | ||
| 44039_TS_DEWT_032007.nc | 26-Dec-2024 14:45 | 429269 | ||
| 44039_TS_DEWT_032008.nc | 26-Dec-2024 14:49 | 428975 | ||
| 44039_TS_DEWT_032010.nc | 26-Dec-2024 14:55 | 429216 | ||
| 44039_TS_DEWT_032011.nc | 26-Dec-2024 14:57 | 429285 | ||
| 44039_TS_DEWT_032012.nc | 26-Dec-2024 15:00 | 429258 | ||
| 44039_TS_DEWT_032013.nc | 26-Dec-2024 15:03 | 429285 | ||
| 44039_TS_DEWT_032014.nc | 26-Dec-2024 15:05 | 428979 | ||
| 44039_TS_DEWT_032016.nc | 26-Dec-2024 15:10 | 429279 | ||
| 44039_TS_DEWT_032023.nc | 26-Dec-2024 15:21 | 429287 | ||
| 44039_TS_DEWT_042004.nc | 26-Dec-2024 14:38 | 429293 | ||
| 44039_TS_DEWT_042005.nc | 26-Dec-2024 14:41 | 429281 | ||
| 44039_TS_DEWT_042006.nc | 26-Dec-2024 14:43 | 449448 | ||
| 44039_TS_DEWT_042007.nc | 26-Dec-2024 14:46 | 429292 | ||
| 44039_TS_DEWT_042008.nc | 26-Dec-2024 14:49 | 440560 | ||
| 44039_TS_DEWT_042009.nc | 26-Dec-2024 14:52 | 429285 | ||
| 44039_TS_DEWT_042010.nc | 26-Dec-2024 14:55 | 429286 | ||
| 44039_TS_DEWT_042011.nc | 26-Dec-2024 14:58 | 449737 | ||
| 44039_TS_DEWT_042013.nc | 26-Dec-2024 15:03 | 448834 | ||
| 44039_TS_DEWT_042014.nc | 26-Dec-2024 15:05 | 448795 | ||
| 44039_TS_DEWT_042016.nc | 26-Dec-2024 15:10 | 448968 | ||
| 44039_TS_DEWT_042017.nc | 26-Dec-2024 15:12 | 449279 | ||
| 44039_TS_DEWT_042023.nc | 26-Dec-2024 15:21 | 450174 | ||
| 44039_TS_DEWT_042024.nc | 20-Jan-2025 08:58 | 449587 | ||
| 44039_TS_DEWT_052004.nc | 26-Dec-2024 14:39 | 448817 | ||
| 44039_TS_DEWT_052005.nc | 26-Dec-2024 14:41 | 448639 | ||
| 44039_TS_DEWT_052006.nc | 26-Dec-2024 14:43 | 446321 | ||
| 44039_TS_DEWT_052007.nc | 26-Dec-2024 14:46 | 429493 | ||
| 44039_TS_DEWT_052008.nc | 26-Dec-2024 14:50 | 429489 | ||
| 44039_TS_DEWT_052009.nc | 26-Dec-2024 14:53 | 429495 | ||
| 44039_TS_DEWT_052010.nc | 26-Dec-2024 14:55 | 450515 | ||
| 44039_TS_DEWT_052011.nc | 26-Dec-2024 14:58 | 449279 | ||
| 44039_TS_DEWT_052013.nc | 26-Dec-2024 15:03 | 450044 | ||
| 44039_TS_DEWT_052014.nc | 26-Dec-2024 15:06 | 418799 | ||
| 44039_TS_DEWT_052015.nc | 26-Dec-2024 15:08 | 429493 | ||
| 44039_TS_DEWT_052016.nc | 26-Dec-2024 15:10 | 429490 | ||
| 44039_TS_DEWT_052017.nc | 26-Dec-2024 15:13 | 429469 | ||
| 44039_TS_DEWT_052023.nc | 26-Dec-2024 15:22 | 429493 | ||
| 44039_TS_DEWT_062004.nc | 26-Dec-2024 14:39 | 429488 | ||
| 44039_TS_DEWT_062005.nc | 26-Dec-2024 14:41 | 429607 | ||
| 44039_TS_DEWT_062006.nc | 26-Dec-2024 14:43 | 429614 | ||
| 44039_TS_DEWT_062007.nc | 26-Dec-2024 14:46 | 429608 | ||
| 44039_TS_DEWT_062008.nc | 26-Dec-2024 14:50 | 429618 | ||
| 44039_TS_DEWT_062010.nc | 26-Dec-2024 14:55 | 429616 | ||
| 44039_TS_DEWT_062011.nc | 26-Dec-2024 14:58 | 429607 | ||
| 44039_TS_DEWT_062013.nc | 26-Dec-2024 15:03 | 429443 | ||
| 44039_TS_DEWT_062014.nc | 26-Dec-2024 15:06 | 429622 | ||
| 44039_TS_DEWT_062015.nc | 26-Dec-2024 15:08 | 429596 | ||
| 44039_TS_DEWT_062016.nc | 26-Dec-2024 15:10 | 429564 | ||
| 44039_TS_DEWT_062017.nc | 26-Dec-2024 15:13 | 429621 | ||
| 44039_TS_DEWT_062023.nc | 26-Dec-2024 15:22 | 450842 | ||
| 44039_TS_DEWT_072004.nc | 26-Dec-2024 14:39 | 429291 | ||
| 44039_TS_DEWT_072005.nc | 26-Dec-2024 14:41 | 429614 | ||
| 44039_TS_DEWT_072006.nc | 26-Dec-2024 14:44 | 429608 | ||
| 44039_TS_DEWT_072007.nc | 26-Dec-2024 14:47 | 429607 | ||
| 44039_TS_DEWT_072008.nc | 26-Dec-2024 14:50 | 449739 | ||
| 44039_TS_DEWT_072010.nc | 26-Dec-2024 14:56 | 450826 | ||
| 44039_TS_DEWT_072011.nc | 26-Dec-2024 14:58 | 449734 | ||
| 44039_TS_DEWT_072012.nc | 26-Dec-2024 15:01 | 450948 | ||
| 44039_TS_DEWT_072013.nc | 26-Dec-2024 15:04 | 450432 | ||
| 44039_TS_DEWT_072014.nc | 26-Dec-2024 15:06 | 450225 | ||
| 44039_TS_DEWT_072016.nc | 26-Dec-2024 15:10 | 450235 | ||
| 44039_TS_DEWT_072017.nc | 26-Dec-2024 15:13 | 450171 | ||
| 44039_TS_DEWT_072023.nc | 26-Dec-2024 15:22 | 450043 | ||
| 44039_TS_DEWT_082004.nc | 26-Dec-2024 14:39 | 429831 | ||
| 44039_TS_DEWT_082005.nc | 26-Dec-2024 14:41 | 429834 | ||
| 44039_TS_DEWT_082006.nc | 26-Dec-2024 14:44 | 429009 | ||
| 44039_TS_DEWT_082007.nc | 26-Dec-2024 14:47 | 429834 | ||
| 44039_TS_DEWT_082008.nc | 26-Dec-2024 14:50 | 450233 | ||
| 44039_TS_DEWT_082009.nc | 26-Dec-2024 14:53 | 449796 | ||
| 44039_TS_DEWT_082010.nc | 26-Dec-2024 14:56 | 449976 | ||
| 44039_TS_DEWT_082011.nc | 26-Dec-2024 14:58 | 429834 | ||
| 44039_TS_DEWT_082012.nc | 26-Dec-2024 15:01 | 429831 | ||
| 44039_TS_DEWT_082013.nc | 26-Dec-2024 15:04 | 429838 | ||
| 44039_TS_DEWT_082014.nc | 26-Dec-2024 15:06 | 429830 | ||
| 44039_TS_DEWT_082016.nc | 26-Dec-2024 15:11 | 429834 | ||
| 44039_TS_DEWT_082017.nc | 26-Dec-2024 15:13 | 429812 | ||
| 44039_TS_DEWT_082023.nc | 26-Dec-2024 15:22 | 429272 | ||
| 44039_TS_DEWT_092004.nc | 26-Dec-2024 14:39 | 429269 | ||
| 44039_TS_DEWT_092006.nc | 26-Dec-2024 14:44 | 429274 | ||
| 44039_TS_DEWT_092007.nc | 26-Dec-2024 14:47 | 429276 | ||
| 44039_TS_DEWT_092008.nc | 26-Dec-2024 14:51 | 429246 | ||
| 44039_TS_DEWT_092009.nc | 26-Dec-2024 14:53 | 429288 | ||
| 44039_TS_DEWT_092010.nc | 26-Dec-2024 14:56 | 429279 | ||
| 44039_TS_DEWT_092011.nc | 26-Dec-2024 14:59 | 429283 | ||
| 44039_TS_DEWT_092012.nc | 26-Dec-2024 15:01 | 427384 | ||
| 44039_TS_DEWT_092013.nc | 26-Dec-2024 15:04 | 429288 | ||
| 44039_TS_DEWT_092014.nc | 26-Dec-2024 15:07 | 429287 | ||
| 44039_TS_DEWT_092015.nc | 26-Dec-2024 15:08 | 448998 | ||
| 44039_TS_DEWT_092016.nc | 26-Dec-2024 15:11 | 429289 | ||
| 44039_TS_DEWT_092017.nc | 26-Dec-2024 15:13 | 429282 | ||
| 44039_TS_DEWT_092022.nc | 26-Dec-2024 15:20 | 429290 | ||
| 44039_TS_DEWT_092023.nc | 26-Dec-2024 15:23 | 429290 | ||
| 44039_TS_DEWT_102004.nc | 26-Dec-2024 14:40 | 448495 | ||
| 44039_TS_DEWT_102005.nc | 26-Dec-2024 14:42 | 448630 | ||
| 44039_TS_DEWT_102006.nc | 26-Dec-2024 14:44 | 448526 | ||
| 44039_TS_DEWT_102007.nc | 26-Dec-2024 14:48 | 449400 | ||
| 44039_TS_DEWT_102008.nc | 26-Dec-2024 14:51 | 449867 | ||
| 44039_TS_DEWT_102009.nc | 26-Dec-2024 14:54 | 449190 | ||
| 44039_TS_DEWT_102010.nc | 26-Dec-2024 14:56 | 450079 | ||
| 44039_TS_DEWT_102011.nc | 26-Dec-2024 14:59 | 449181 | ||
| 44039_TS_DEWT_102012.nc | 26-Dec-2024 15:02 | 448264 | ||
| 44039_TS_DEWT_102013.nc | 26-Dec-2024 15:04 | 429487 | ||
| 44039_TS_DEWT_102014.nc | 26-Dec-2024 15:07 | 429487 | ||
| 44039_TS_DEWT_102015.nc | 26-Dec-2024 15:09 | 429224 | ||
| 44039_TS_DEWT_102016.nc | 26-Dec-2024 15:11 | 429488 | ||
| 44039_TS_DEWT_102017.nc | 26-Dec-2024 15:13 | 448940 | ||
| 44039_TS_DEWT_102022.nc | 26-Dec-2024 15:20 | 449179 | ||
| 44039_TS_DEWT_102023.nc | 26-Dec-2024 15:23 | 436527 | ||
| 44039_TS_DEWT_112005.nc | 26-Dec-2024 14:42 | 429492 | ||
| 44039_TS_DEWT_112006.nc | 26-Dec-2024 14:44 | 429479 | ||
| 44039_TS_DEWT_112007.nc | 26-Dec-2024 14:48 | 427351 | ||
| 44039_TS_DEWT_112008.nc | 26-Dec-2024 14:51 | 429492 | ||
| 44039_TS_DEWT_112009.nc | 26-Dec-2024 14:54 | 429490 | ||
| 44039_TS_DEWT_112010.nc | 26-Dec-2024 14:56 | 429489 | ||
| 44039_TS_DEWT_112011.nc | 26-Dec-2024 14:59 | 429595 | ||
| 44039_TS_DEWT_112012.nc | 26-Dec-2024 15:02 | 429607 | ||
| 44039_TS_DEWT_112013.nc | 26-Dec-2024 15:04 | 429573 | ||
| 44039_TS_DEWT_112014.nc | 26-Dec-2024 15:07 | 429597 | ||
| 44039_TS_DEWT_112015.nc | 26-Dec-2024 15:09 | 425629 | ||
| 44039_TS_DEWT_112016.nc | 26-Dec-2024 15:11 | 429609 | ||
| 44039_TS_DEWT_112022.nc | 26-Dec-2024 15:21 | 429616 | ||
| 44039_TS_DEWT_112023.nc | 26-Dec-2024 15:23 | 429607 | ||
| 44039_TS_DEWT_122004.nc | 26-Dec-2024 14:40 | 422751 | ||
| 44039_TS_DEWT_122005.nc | 26-Dec-2024 14:42 | 429616 | ||
| 44039_TS_DEWT_122006.nc | 26-Dec-2024 14:45 | 429609 | ||
| 44039_TS_DEWT_122007.nc | 26-Dec-2024 14:48 | 450500 | ||
| 44039_TS_DEWT_122008.nc | 26-Dec-2024 14:51 | 429619 | ||
| 44039_TS_DEWT_122009.nc | 26-Dec-2024 14:54 | 429620 | ||
| 44039_TS_DEWT_122010.nc | 26-Dec-2024 14:57 | 428193 | ||
| 44039_TS_DEWT_122011.nc | 26-Dec-2024 14:59 | 429614 | ||
| 44039_TS_DEWT_122012.nc | 26-Dec-2024 15:02 | 450445 | ||
| 44039_TS_DEWT_122013.nc | 26-Dec-2024 15:05 | 450031 | ||
| 44039_TS_DEWT_122014.nc | 26-Dec-2024 15:07 | 450873 | ||
| 44039_TS_DEWT_122015.nc | 26-Dec-2024 15:09 | 450614 | ||
| 44039_TS_DEWT_122016.nc | 26-Dec-2024 15:12 | 450264 | ||
| 44039_TS_DEWT_122022.nc | 26-Dec-2024 15:21 | 449846 | ||
| 44039_TS_DEWT_122023.nc | 29-Dec-2024 13:15 | 449840 | ||